When you browse on this site, cookies collect data to enhance your experience and personalize the content and advertising you see.
Visit our Privacy Policy to learn more. By continuing to use the site, you agree to this use of cookies and data.
  • In Latvia
  • List of Countries
  • For 7 days
  • Water Temperature
  • Satellite Maps
  • Weather Map
  • Weather Widgets
  • user-avatar
    Login

    Hourly Weather Dzhalalkuduk

    Today, 16 February, Saturday

    Time Temperature Precipitation Wind Pressure Humidity
    00:00 +5°C° 0 mm 1 mps 710 mmHg 66%
    01:00 +5°C° 0 mm 1 mps 710 mmHg 64%
    02:00 +4°C° 0 mm 1 mps 711 mmHg 62%
    03:00 +4°C° 0 mm 1 mps 711 mmHg 60%
    04:00 +3°C° 0 mm 2 mps 711 mmHg 58%
    05:00 +3°C° 0 mm 2 mps 712 mmHg 56%
    06:00 +3°C° 0 mm 2 mps 712 mmHg 54%
    07:00 +3°C° 0 mm 2 mps 712 mmHg 52%
    08:00 +2°C° 0 mm 3 mps 712 mmHg 50%
    09:00 +4°C° 0 mm 3 mps 712 mmHg 44%
    10:00 +7°C° 0 mm 3 mps 711 mmHg 39%
    11:00 +8°C° 0 mm 4 mps 710 mmHg 33%
    12:00 +10°C° 0 mm 4 mps 709 mmHg 31%
    13:00 +11°C° 0 mm 4 mps 708 mmHg 29%
    14:00 +12°C° 0 mm 5 mps 707 mmHg 27%
    15:00 +11°C° 0 mm 4 mps 707 mmHg 29%
    16:00 +11°C° 0 mm 4 mps 707 mmHg 31%
    17:00 +10°C° 0 mm 3 mps 707 mmHg 33%
    18:00 +9°C° 0 mm 3 mps 707 mmHg 37%
    19:00 +8°C° 0 mm 3 mps 707 mmHg 41%
    20:00 +6°C° 0 mm 2 mps 708 mmHg 46%
    21:00 +6°C° 0 mm 2 mps 707 mmHg 45%
    22:00 +5°C° 0 mm 2 mps 706 mmHg 44%
    23:00 +5°C° 0 mm 2 mps 705 mmHg 43%

    Tomorrow, 17 February, Sunday

    Time Temperature Precipitation Wind Pressure Humidity
    00:00 +5°C° 0 mm 2 mps 705 mmHg 42%
    01:00 +5°C° 0 mm 2 mps 704 mmHg 42%
    02:00 +4°C° 0 mm 2 mps 703 mmHg 42%
    03:00 +4°C° 0 mm 2 mps 702 mmHg 42%
    04:00 +4°C° 0 mm 2 mps 701 mmHg 42%
    05:00 +4°C° 0 mm 2 mps 700 mmHg 42%
    06:00 +4°C° 0 mm 2 mps 700 mmHg 42%
    07:00 +4°C° 0 mm 2 mps 699 mmHg 42%
    08:00 +4°C° 0 mm 2 mps 698 mmHg 43%
    09:00 +6°C° 0 mm 1 mps 697 mmHg 40%
    10:00 +7°C° 0 mm 1 mps 697 mmHg 38%
    11:00 +8°C° 0 mm 1 mps 696 mmHg 36%
    12:00 +9°C° 0 mm 1 mps 696 mmHg 35%
    13:00 +9°C° 0 mm 2 mps 695 mmHg 33%
    14:00 +9°C° 0 mm 3 mps 695 mmHg 31%
    15:00 +9°C° 0 mm 3 mps 696 mmHg 31%
    16:00 +8°C° 0 mm 2 mps 697 mmHg 31%
    17:00 +9°C° 0 mm 1 mps 698 mmHg 31%
    18:00 +9°C° 0 mm 1 mps 699 mmHg 33%
    19:00 +8°C° 0 mm 1 mps 700 mmHg 35%
    20:00 +8°C° 0 mm 1 mps 701 mmHg 37%
    21:00 +7°C° 0.2 mm 1 mps 701 mmHg 42%
    22:00 +7°C° 0.2 mm 1 mps 701 mmHg 47%
    23:00 +6°C° 0.2 mm 1 mps 701 mmHg 51%

    Day after tomorrow, 18 February, Monday

    Time Temperature Precipitation Wind Pressure Humidity
    00:00 +6°C° 0.2 mm 1 mps 701 mmHg 56%
    01:00 +6°C° 0.2 mm 1 mps 701 mmHg 61%
    02:00 +5°C° 0.2 mm 1 mps 701 mmHg 66%
    03:00 +5°C° 0.2 mm 1 mps 701 mmHg 66%
    04:00 +5°C° 0.2 mm 1 mps 701 mmHg 67%
    05:00 +5°C° 0.2 mm 1 mps 701 mmHg 68%
    06:00 +4°C° 0 mm 0 mps 701 mmHg 68%
    07:00 +4°C° 0 mm 0 mps 701 mmHg 67%
    08:00 +4°C° 0 mm 0 mps 701 mmHg 67%
    09:00 +5°C° 0 mm 1 mps 701 mmHg 65%
    10:00 +6°C° 0 mm 1 mps 700 mmHg 63%
    11:00 +6°C° 0 mm 2 mps 699 mmHg 60%
    12:00 +6°C° 0 mm 2 mps 699 mmHg 60%
    13:00 +7°C° 0 mm 2 mps 699 mmHg 60%
    14:00 +7°C° 0 mm 3 mps 698 mmHg 59%
    15:00 +7°C° 0.1 mm 3 mps 699 mmHg 64%
    16:00 +7°C° 0.1 mm 3 mps 700 mmHg 69%
    17:00 +5°C° 0.1 mm 4 mps 700 mmHg 74%
    18:00 +5°C° 0.1 mm 3 mps 701 mmHg 76%
    19:00 +5°C° 0.1 mm 2 mps 702 mmHg 79%
    20:00 +6°C° 0.1 mm 1 mps 703 mmHg 81%
    21:00 +6°C° 0 mm 1 mps 704 mmHg 82%
    22:00 +5°C° 0 mm 1 mps 704 mmHg 84%
    23:00 +5°C° 0 mm 1 mps 704 mmHg 85%

    19 February, Tuesday

    Time Temperature Precipitation Wind Pressure Humidity
    00:00 +5°C° 0 mm 1 mps 704 mmHg 83%
    01:00 +4°C° 0 mm 1 mps 704 mmHg 81%
    02:00 +4°C° 0 mm 1 mps 705 mmHg 78%
    03:00 +4°C° 0 mm 1 mps 705 mmHg 75%
    04:00 +3°C° 0 mm 1 mps 705 mmHg 71%
    05:00 +3°C° 0 mm 1 mps 705 mmHg 68%
    06:00 +3°C° 0 mm 1 mps 705 mmHg 63%
    07:00 +3°C° 0 mm 1 mps 705 mmHg 59%
    08:00 +4°C° 0 mm 1 mps 705 mmHg 55%
    09:00 +5°C° 0 mm 1 mps 704 mmHg 48%
    10:00 +7°C° 0 mm 1 mps 703 mmHg 41%
    11:00 +8°C° 0 mm 1 mps 702 mmHg 34%
    12:00 +9°C° 0 mm 1 mps 701 mmHg 32%
    13:00 +10°C° 0 mm 1 mps 701 mmHg 31%
    14:00 +11°C° 0 mm 1 mps 700 mmHg 29%
    15:00 +11°C° 0 mm 1 mps 701 mmHg 31%
    16:00 +11°C° 0 mm 1 mps 701 mmHg 32%
    17:00 +11°C° 0 mm 1 mps 701 mmHg 34%
    18:00 +10°C° 0 mm 1 mps 702 mmHg 37%
    19:00 +9°C° 0 mm 1 mps 703 mmHg 41%
    20:00 +8°C° 0 mm 1 mps 704 mmHg 45%
    21:00 +7°C° 0 mm 1 mps 705 mmHg 45%
    22:00 +7°C° 0 mm 1 mps 705 mmHg 46%
    23:00 +6°C° 0 mm 1 mps 705 mmHg 47%

    20 February, Wednesday

    Time Temperature Precipitation Wind Pressure Humidity
    00:00 +6°C° 0 mm 1 mps 706 mmHg 47%
    01:00 +6°C° 0 mm 1 mps 706 mmHg 47%
    02:00 +5°C° 0 mm 1 mps 706 mmHg 47%
    03:00 +5°C° 0 mm 1 mps 706 mmHg 46%
    04:00 +5°C° 0 mm 1 mps 706 mmHg 45%
    05:00 +5°C° 0 mm 1 mps 706 mmHg 45%
    06:00 +5°C° 0 mm 1 mps 706 mmHg 44%
    07:00 +5°C° 0 mm 1 mps 706 mmHg 44%
    08:00 +4°C° 0 mm 0 mps 706 mmHg 44%
    09:00 +6°C° 0 mm 1 mps 705 mmHg 41%
    10:00 +7°C° 0 mm 1 mps 705 mmHg 37%
    11:00 +8°C° 0 mm 2 mps 704 mmHg 34%
    12:00 +8°C° 0 mm 2 mps 704 mmHg 33%
    13:00 +9°C° 0 mm 3 mps 704 mmHg 33%
    14:00 +10°C° 0 mm 4 mps 703 mmHg 32%
    15:00 +8°C° 0 mm 4 mps 704 mmHg 34%
    16:00 +8°C° 0 mm 4 mps 705 mmHg 37%
    17:00 +7°C° 0 mm 4 mps 705 mmHg 40%
    18:00 +6°C° 0 mm 4 mps 706 mmHg 49%
    19:00 +4°C° 0 mm 4 mps 707 mmHg 59%
    20:00 +3°C° 0 mm 3 mps 708 mmHg 69%
    21:00 +2°C° 0.1 mm 3 mps 708 mmHg 71%
    22:00 +2°C° 0.1 mm 3 mps 708 mmHg 73%
    23:00 +2°C° 0.1 mm 2 mps 708 mmHg 75%

    21 February, Thursday

    Time Temperature Precipitation Wind Pressure Humidity
    00:00 +2°C° 0.2 mm 2 mps 708 mmHg 76%
    01:00 +2°C° 0.2 mm 2 mps 708 mmHg 77%
    02:00 +1°C° 0.2 mm 2 mps 708 mmHg 78%
    03:00 +1°C° 0.2 mm 2 mps 708 mmHg 80%
    04:00 +1°C° 0.2 mm 2 mps 708 mmHg 82%
    05:00 -1°C° 0.2 mm 2 mps 708 mmHg 83%
    06:00 -1°C° 0.2 mm 2 mps 708 mmHg 84%
    07:00 +1°C° 0.2 mm 1 mps 709 mmHg 86%
    08:00 +1°C° 0.2 mm 1 mps 709 mmHg 87%
    09:00 +1°C° 0.1 mm 1 mps 708 mmHg 84%
    10:00 +1°C° 0.1 mm 2 mps 708 mmHg 82%
    11:00 +1°C° 0.1 mm 2 mps 707 mmHg 79%
    12:00 +2°C° 0 mm 2 mps 707 mmHg 76%
    13:00 +2°C° 0 mm 2 mps 706 mmHg 73%
    14:00 +3°C° 0 mm 2 mps 706 mmHg 70%
    15:00 +4°C° 0 mm 1 mps 706 mmHg 70%
    16:00 +4°C° 0 mm 1 mps 706 mmHg 70%
    17:00 +4°C° 0 mm 1 mps 707 mmHg 69%
    18:00 +3°C° 0 mm 1 mps 707 mmHg 72%
    19:00 +3°C° 0 mm 1 mps 708 mmHg 74%
    20:00 +3°C° 0 mm 1 mps 708 mmHg 76%
    21:00 +3°C° 0 mm 1 mps 708 mmHg 78%
    22:00 +2°C° 0 mm 1 mps 708 mmHg 80%
    23:00 +2°C° 0 mm 1 mps 708 mmHg 82%
    Show more